Juliana Airport, Sint Maarten

12:23 PM AST on October 20, 2017 (GMT -0400)
Princess Juliana International

Weather History for TNCM - October, 2012

Change the Weather History Date:

Monday, October 22, 2012

  Actual Average Record
Temperature  
Mean Temperature 82 °F -  
Max Temperature 86 °F 85 °F 89 °F (1996)
Min Temperature 78 °F 75 °F 75 °F (1999)
Cooling Degree Days 17    
Growing Degree Days 32 (Base 50)    
Moisture  
Dew Point 74 °F    
Average Humidity 73    
Maximum Humidity 89    
Minimum Humidity 62    
Precipitation  
Precipitation 0.00 in 0.16 in - ()
Sea Level Pressure  
Sea Level Pressure 29.85 in    
Wind  
Wind Speed 5 mph ()    
Max Wind Speed 9 mph    
Max Gust Speed -    
Visibility 6.7 miles    
Events      
Averages and records for this station are not official NWS values.
T = Trace of Precipitation, MM = Missing Value Source: Averaged Metar Reports

Daily Weather History Graph

Daily Weather History Graph

Search for Another Location

Airport or City:

Trip Planner

Search our weather history database for the weather conditions in past years. The results will help you decide how hot, cold, wet, or windy it might be!

Date:

Astronomy

Oct. 22, 2012 Rise Set
Actual Time 6:08 AM AST 5:45 PM AST
Civil Twilight 5:46 AM AST 6:07 PM AST
Nautical Twilight 5:20 AM AST 6:32 PM AST
Astronomical Twilight 4:55 AM AST 6:58 PM AST
Moon 12:57 PM AST (10/22) No Moon Set
Length of Visible Light 12h 21m
Length of Day
11h 37m
First Quarter, 56% of the Moon is Illuminated
Oct 22
First Quarter
Oct 29
Full
Nov 6
Last Quarter
Nov 13
New
Nov 20
First Quarter

Hourly Weather History & Observations

Time (AST) Temp. Heat Index Dew Point Humidity Pressure Visibility Wind Dir Wind Speed Gust Speed Precip Events Conditions
12:00 AM 80.6 °F 86.2 °F 75.2 °F 84% 29.86 in 6.2 mi East 3.5 mph - N/A   Partly Cloudy
1:00 AM 80.6 °F 85.4 °F 73.4 °F 79% 29.83 in 6.2 mi East 4.6 mph - N/A   Partly Cloudy
2:00 AM 80 °F - 74 °F 77% 29.83 in 19 mi East 4.6 mph - -   Partly Cloudy
2:00 AM 80.6 °F 85.4 °F 73.4 °F 79% 29.83 in 6.2 mi East 4.6 mph - N/A   Partly Cloudy
3:00 AM 80.6 °F 85.4 °F 73.4 °F 79% 29.80 in 6.2 mi SSE 6.9 mph - N/A   Scattered Clouds
4:00 AM 78.8 °F - 75.2 °F 89% 29.80 in 6.2 mi ESE 3.5 mph - N/A   Scattered Clouds
5:00 AM 79 °F - 74 °F 79% 29.82 in 22 mi East 4.6 mph - -   Partly Cloudy
5:00 AM 78.8 °F - 73.4 °F 83% 29.80 in 6.2 mi East 4.6 mph - N/A   Scattered Clouds
6:00 AM 80.6 °F 85.4 °F 73.4 °F 79% 29.83 in 6.2 mi ESE 4.6 mph - N/A   Partly Cloudy
7:00 AM 80.6 °F 85.4 °F 73.4 °F 79% 30.09 in 6.2 mi East 3.5 mph - N/A   Partly Cloudy
8:00 AM 84 °F - 74 °F 64% 29.87 in 44 mi East 4.6 mph - -   Partly Cloudy
8:00 AM 84.2 °F 90.9 °F 73.4 °F 70% 29.86 in 6.2 mi ENE 4.6 mph - N/A   Scattered Clouds
9:00 AM 84.2 °F 90.9 °F 73.4 °F 70% 29.89 in 6.2 mi ESE 6.9 mph - N/A   Scattered Clouds
10:00 AM 86.0 °F 93.4 °F 73.4 °F 66% 29.89 in 6.2 mi ESE 8.1 mph - N/A   Partly Cloudy
11:00 AM 86 °F - 75 °F 62% 29.90 in 44 mi SE 9.2 mph - -   Mostly Cloudy
11:00 AM 86.0 °F 95.1 °F 75.2 °F 70% 29.89 in 6.2 mi SE 8.1 mph - N/A   Mostly Cloudy
12:00 PM 86.0 °F 93.4 °F 73.4 °F 66% 29.86 in 6.2 mi ESE 8.1 mph - N/A   Scattered Clouds
1:00 PM 86.0 °F 93.4 °F 73.4 °F 66% 29.83 in 6.2 mi SSE 6.9 mph - N/A   Scattered Clouds
2:00 PM 84 °F - 73 °F 62% 29.83 in 44 mi SE 9.2 mph - -   Partly Cloudy
2:00 PM 84.2 °F 90.9 °F 73.4 °F 70% 29.83 in 6.2 mi SE 9.2 mph - N/A   Scattered Clouds
3:00 PM 86.0 °F 93.4 °F 73.4 °F 66% 29.80 in 6.2 mi SE 9.2 mph - N/A   Partly Cloudy
4:00 PM 84.2 °F 90.9 °F 73.4 °F 70% 29.80 in 6.2 mi ESE 8.1 mph - N/A   Partly Cloudy
5:00 PM 84 °F - 73 °F 62% 29.83 in 44 mi SE 6.9 mph - -   Scattered Clouds
5:00 PM 84.2 °F 90.9 °F 73.4 °F 70% 29.83 in 6.2 mi SE 6.9 mph - N/A   Partly Cloudy
6:00 PM 82.4 °F 88.2 °F 73.4 °F 74% 29.83 in 6.2 mi East 5.8 mph - N/A   Partly Cloudy
7:00 PM 82.4 °F 88.2 °F 73.4 °F 74% 29.86 in 6.2 mi East 9.2 mph - N/A   Partly Cloudy
8:00 PM 81 °F - 73 °F 70% 29.87 in 44 mi East 5.8 mph - -   Scattered Clouds
8:00 PM 80.6 °F 85.4 °F 73.4 °F 79% 29.86 in 6.2 mi East 5.8 mph - N/A   Partly Cloudy
9:00 PM 80.6 °F 85.4 °F 73.4 °F 79% 29.86 in 6.2 mi East 6.9 mph - N/A   Partly Cloudy
10:00 PM 80.6 °F 84.6 °F 71.6 °F 74% 29.86 in 6.2 mi East 5.8 mph - N/A   Partly Cloudy
11:00 PM 80.6 °F 84.6 °F 71.6 °F 74% 29.86 in 6.2 mi East 4.6 mph - N/A   Partly Cloudy